Location: Absher
(46.5583°N, 107.9840°W)
Time: 16:23:57
(UTC+00:00)

Envisat - Visible Passes

Search period start: 04 December 2022 00:00
Search period end: 14 December 2022 00:00
Orbit: 763 x 765 km, 98.2° (Epoch: 03 December)

Date Brightness Start Highest point End Pass type
(mag) Time Alt. Az. Time Alt. Az. Time Alt. Az.
04 Dec 5.9 00:02:02 10° WSW 00:04:40 14° W 00:07:18 10° NW visible
04 Dec 4.7 12:04:58 10° N 12:06:39 21° N 12:06:39 21° N visible
05 Dec 5.1 11:27:52 10° NNE 11:29:04 18° NNE 11:29:04 18° NNE visible
05 Dec 4.8 13:08:12 10° NNW 13:09:14 13° NNW 13:09:14 13° NNW visible
06 Dec 5.7 10:51:09 10° NNE 10:51:29 12° NNE 10:51:29 12° NNE visible
06 Dec 4.8 12:30:18 10° N 12:31:40 17° NNW 12:31:40 17° NNW visible
07 Dec 5.0 11:52:56 10° N 11:54:05 17° N 11:54:05 17° N visible
08 Dec 5.4 11:15:57 10° NNE 11:16:31 13° NNE 11:16:31 13° NNE visible
08 Dec 4.9 12:55:52 10° NNW 12:56:42 13° NNW 12:56:42 13° NNW visible
09 Dec 6.4 00:17:19 10° W 00:17:57 10° W 00:18:36 10° WNW visible
09 Dec 5.0 12:18:12 10° N 12:19:08 15° N 12:19:08 15° N visible
10 Dec 5.3 11:40:56 10° NNE 11:41:35 14° NNE 11:41:35 14° NNE visible
11 Dec 5.0 12:43:37 10° N 12:44:13 13° NNW 12:44:13 13° NNW visible
12 Dec 6.0 00:03:22 10° WSW 00:05:49 13° W 00:08:16 10° WNW visible
12 Dec 5.2 12:06:06 10° N 12:06:41 13° N 12:06:41 13° N visible
13 Dec 5.5 11:28:58 10° NNE 11:29:10 11° NNE 11:29:10 11° NNE visible
